Home   Weather   Rasht   Past weeks
Flag for Iran

Past Weather in Rasht, Iran — Yesterday and Last 2 Weeks

Now
63 °F

Passing clouds.


Feels Like: 63 °F
Forecast: 76 / 60 °F
Wind: No wind

Location: Rasht Airport

Current Time: Oct 18, 2019 at 5:47:55 am

Latest Report: Oct 18, 2019 at 4:30 am


Visibility: 4 mi

Pressure: 30.09 "Hg

Humidity: 94%

Dew Point: 61 °F

Location of RashtLocation

Past Weather in Rasht — Graph

°F

Rasht Temperature Yesterday

Maximum temperature yesterday: 75 °F (at 11:30 am)
Minimum temperature yesterday: 59 °F (at 12:30 am)
Average temperature yesterday: 68 °F

High & Low Weather Summary for the Past Weeks

 TemperatureHumidityPressure
High82 °F (Oct 7, 12:30 pm)100% (Oct 3, 4:30 am)30.45 "Hg (Oct 3, 4:30 am)
Low55 °F (Oct 16, 4:30 am)36% (Oct 7, 7:30 am)29.56 "Hg (Oct 7, 2:30 am)
Average69 °F83%30.06 "Hg
* Reported Oct 3 4:30 am — Oct 18 4:30 am, Rasht. Weather by CustomWeather, © 2019

Note: Actual official high and low records may vary slightly from our data, if they occured in-between our weather recording intervals... More about our weather records

Advertising

Rasht Weather History for the Previous 24 Hours

Scroll right to see more
 ConditionsComfort  
Time TempWeatherWind HumidityBarometerVisibility
4:30 am
Fri, Oct 18
63 °FPassing clouds.No wind94%30.09 "Hg4 mi
3:30 am63 °FFog.No wind100%30.09 "Hg2 mi
2:30 am63 °FFog.No wind100%30.12 "Hg2 mi
1:30 am63 °FFog.No wind100%30.12 "Hg2 mi
12:30 am63 °FFog.No wind100%30.12 "Hg1 mi
11:30 pm
Thu, Oct 17
63 °FFog.No wind100%30.12 "Hg2 mi
10:30 pm63 °FFog.No wind100%30.12 "Hg2 mi
9:30 pm63 °FFog.No wind100%30.12 "Hg2 mi
9:00 pm64 °FPassing clouds.No wind94%30.15 "Hg4 mi
8:30 pm64 °FPassing clouds.5 mph94%30.15 "Hg4 mi
8:00 pm64 °FPassing clouds.No wind94%30.15 "Hg5 mi
6:00 pm68 °FScattered clouds.5 mph88%30.15 "HgN/A
5:30 pm70 °FScattered clouds.5 mph83%30.15 "HgN/A
5:00 pm70 °FBroken clouds.No wind78%30.15 "HgN/A
4:30 pm72 °FBroken clouds.5 mph73%30.15 "HgN/A
4:00 pm72 °FPartly sunny.5 mph78%30.15 "HgN/A
3:30 pm72 °FPartly sunny.5 mph78%30.15 "HgN/A
3:00 pm73 °FPartly sunny.5 mph74%30.15 "HgN/A
2:30 pm73 °FPartly sunny.5 mph74%30.15 "HgN/A
2:00 pm73 °FPartly sunny.5 mph69%30.18 "HgN/A
1:30 pm73 °FPartly sunny.5 mph69%30.18 "HgN/A
1:00 pm73 °FScattered clouds.5 mph69%30.18 "HgN/A
12:30 pm73 °FScattered clouds.No wind69%30.18 "HgN/A
12:00 pm73 °FScattered clouds.No wind69%30.21 "HgN/A
11:30 am75 °FScattered clouds.5 mph65%30.21 "HgN/A
11:00 am72 °FPartly sunny.No wind78%30.21 "HgN/A
10:30 am73 °FPartly sunny.No wind74%30.21 "HgN/A
10:00 am72 °FPartly sunny.No wind73%30.21 "HgN/A
9:30 am70 °FPartly sunny.No wind83%30.21 "HgN/A
9:00 am70 °FPartly sunny.No wind78%30.21 "HgN/A
8:30 am68 °FPartly sunny.No wind83%30.21 "HgN/A
8:00 am66 °FPartly sunny.No wind94%30.21 "HgN/A
7:30 am64 °FPartly sunny.No wind94%30.18 "HgN/A
7:00 am63 °FPartly sunny.No wind94%30.18 "Hg4 mi
6:30 am63 °FPassing clouds.No wind94%30.18 "Hg4 mi
6:00 am63 °FPassing clouds.No wind94%30.18 "HgN/A
5:30 am63 °FPassing clouds.No wind94%30.15 "HgN/A
Weather by CustomWeather, © 2019

See weather overview